[[{"header":{"parameterUnit":"m.s-1","parameterCategory":1,"la1":30.2991,"la2":30.254,"lo1":-89.0895,"lo2":-89.0444,"dy":0.0017,"dx":0.0017,"nx":28,"ny":28,"refTime":"2023-08-26T21:00:00:Z","depth":0,"parameterNumber":2,"parameterNumberName":"U-component_of_WINDS"},"data":[0,0,0,0,0,0,0,0,0,0,0,0,0,0,0,0,0,0,0,0,0,0,0,0,0,0,0,0,0,0,0,0,0,0,0,0,0,0,0,0,0,0,0,0,0,0,0,0,0,0,0,0,0,0,0,0,0,0,0.3741,0.3743,0,0.3915,0.3917,0.3919,0.3898,0.3895,0.3893,0.389,0.4075,0.4083,0.409,0,0,0,0,0,0,0,0,0,0,0,0,0,0.3394,0.34,0.374,0.3743,0.3745,0.3915,0.3918,0.392,0.3899,0.3895,0.3892,0.3889,0.4073,0.4082,0.4091,0,0,0,0,0,0,0,0,0,0,0,0,0,0.3554,0.3402,0.374,0.3755,0.3758,0.3915,0.3918,0.3921,0.39,0.3895,0.3891,0.3887,0.407,0.4081,0.4092,0.4247,0,0,0.4127,0.4132,0,0,0,0,0,0,0,0,0.3545,0.3567,0.375,0.3754,0.3758,0.3881,0.3863,0.403,0.3901,0.3846,0.389,0.3885,0.4014,0.403,0.4072,0.4256,0.4264,0.4128,0.4135,0.4139,0.4143,0,0,0,0,0,0,0,0.3534,0.3559,0.381,0.3753,0.3758,0.3754,0.3772,0.3895,0.3952,0.385,0.3849,0.387,0.4015,0.4061,0.4076,0.4267,0.4127,0.4137,0.4145,0.4149,0.4588,0.4592,0,0,0,0,0,0,0.3518,0.355,0.3804,0.3815,0.3639,0.3764,0.3784,0.3846,0.3951,0.3962,0.3873,0.3868,0.4044,0.4063,0.4083,0.4272,0.4139,0.415,0.4157,0.4583,0.4589,0.4594,0,0,0,0,0,0,0.3511,0.3541,0.3797,0.3682,0.3715,0.3774,0.3844,0.3851,0.3897,0.3968,0.3979,0.3909,0.4041,0.4067,0.4206,0.4278,0.4155,0.4166,0.4577,0.4585,0.4591,0.4652,0,0,0,0,0,0,0.3501,0.3539,0.3597,0.3684,0.3721,0.3916,0.3848,0.3858,0.3916,0.3911,0.4005,0.4016,0.404,0.4189,0.4218,0.4292,0.4174,0.4571,0.458,0.4589,0.4644,0.466,0.4675,0,0,0,0,0,0.3489,0.3609,0.36,0.3631,0.3795,0.3921,0.3942,0.3965,0.3922,0.3982,0.4027,0.4013,0.4266,0.4204,0.4236,0.4314,0.4566,0.4578,0.4588,0.4637,0.4657,0.4674,0,0,0,0,0,0,0.3531,0.362,0.3612,0.3763,0.3834,0.3917,0.3993,0.3986,0.4073,0.4065,0.4092,0.4113,0.4254,0.4298,0.4228,0.447,0.441,0.4428,0.4437,0.4456,0.4471,0.4459,0.4184,0,0,0,0,0,0.3558,0.365,0.3724,0.385,0.3886,0.3933,0.3989,0.4001,0.4076,0.4107,0.4163,0.4238,0.4335,0.4398,0.449,0.465,0.467,0.4719,0.4735,0.4747,0.4762,0.485,0.4873,0.4629,0.4629,0.4629,0,0,0.3614,0.3674,0.3732,0.386,0.3917,0.4014,0.3959,0.4064,0.4137,0.4124,0.4258,0.4302,0.4388,0.4538,0.4607,0.4579,0.4834,0.4761,0.477,0.4779,0.4864,0.4887,0.4907,0.4637,0.4636,0.4634,0,0,0.3767,0.3821,0.3932,0.399,0.4075,0.4106,0.4132,0.4216,0.4244,0.4379,0.4371,0.4459,0.4624,0.4686,0.4739,0.4914,0.4904,0.4943,0.5024,0.511,0.5129,0.5146,0.5209,0.5232,0.4958,0.4959,0.4959,0,0.3827,0.3971,0.3991,0.4097,0.4154,0.4144,0.4258,0.4313,0.4425,0.4466,0.4432,0.4639,0.4697,0.4861,0.4904,0.4947,0.4979,0.4934,0.5124,0.5142,0.5158,0.5219,0.5242,0.4963,0.4962,0.4962,0.4961,0,0.4041,0.4142,0.4221,0.4328,0.4394,0.4503,0.4541,0.4606,0.4612,0.4647,0.4785,0.4853,0.4959,0.4999,0.5006,0.5165,0.5145,0.5117,0.5058,0.5185,0.5243,0.5266,0.4969,0.4967,0.4966,0.4965,0,0,0.4227,0.4341,0.4371,0.4419,0.4512,0.4591,0.47,0.4802,0.4858,0.4935,0.5029,0.5168,0.5143,0.5203,0.5218,0.5292,0.5428,0.5256,0.5259,0.5286,0.5607,0.5628,0.5654,0.5421,0.5426,0.5429,0.56,0,0.4389,0.4581,0.4601,0.4773,0.4866,0.4858,0.4953,0.5022,0.5057,0.5143,0.5182,0.5281,0.524,0.5276,0.535,0.5396,0.5493,0.5383,0.551,0.5514,0.5489,0.5684,0.5706,0.5864,0.5623,0.5627,0.5629,0,0.4605,0.4686,0.4866,0.4946,0.4986,0.5071,0.5166,0.5248,0.5326,0.5346,0.5413,0.5417,0.5532,0.5466,0.5625,0.555,0.5603,0.5634,0.564,0.5654,0.558,0.5704,0.5915,0.5939,0.5665,0.5662,0.5659,0,0.4723,0.4878,0.5006,0.5047,0.5143,0.5203,0.5247,0.532,0.538,0.5463,0.5503,0.5599,0.5652,0.5728,0.5759,0.5708,0.5916,0.5853,0.5938,0.5937,0.5983,0.598,0.6206,0.6016,0.6015,0.6015,0.6014,0,0.4902,0.5013,0.506,0.5139,0.5263,0.5286,0.5409,0.545,0.5515,0.5603,0.5602,0.5685,0.572,0.5809,0.5834,0.5962,0.5986,0.6007,0.6013,0.6008,0.6005,0.6043,0.6034,0.6021,0.602,0.6018,0.6017,0,0.5056,0.5091,0.523,0.5309,0.5331,0.542,0.5488,0.5565,0.5599,0.571,0.5738,0.5791,0.5896,0.5933,0.6061,0.6078,0.6226,0.6223,0.62,0.6201,0.6283,0.6275,0.6544,0.658,0.6364,0.6366,0.6368,0,0.5168,0.5253,0.5341,0.5398,0.5443,0.5536,0.5597,0.5623,0.5687,0.5781,0.5847,0.595,0.6034,0.6202,0.6254,0.6351,0.635,0.6437,0.6365,0.6357,0.6352,0.6347,0.6356,0.6451,0.6453,0.6455,0.6457,0,0.5365,0.5378,0.5464,0.5557,0.5628,0.5703,0.5775,0.5823,0.5861,0.5932,0.6038,0.6103,0.6232,0.6335,0.6435,0.6481,0.6476,0.6479,0.6503,0.65,0.6483,0.6494,0.6237,0.6473,0.6471,0.647,0.6469,0.6468,0.5502,0.5577,0.565,0.5746,0.5803,0.587,0.5946,0.5989,0.6077,0.6182,0.6193,0.6307,0.6383,0.6516,0.6567,0.6657,0.6634,0.667,0.6679,0.6687,0.6694,0.6468,0.6676,0.6675,0.6675,0.6675,0.6674,0,0.5699,0.5745,0.5833,0.5933,0.6009,0.5995,0.6075,0.614,0.6239,0.6309,0.6391,0.6513,0.6613,0.6671,0.6772,0.6833,0.6833,0.6859,0.6855,0.6866,0.6709,0.6678,0.6857,0.6857,0.6857,0.6857,0.6856,0.6856,0.581,0.5936,0.5958,0.6112,0.6158,0.6268,0.6315,0.6378,0.6434,0.6569,0.6651,0.6688,0.6754,0.6859,0.695,0.6965,0.7002,0.703,0.7043,0.6895,0.6877,0.6859,0.6829,0.7038,0.7038,0.7192,0.7193,0.7194]},{"header":{"parameterUnit":"m.s-1","parameterCategory":1,"la1":30.2991,"la2":30.254,"lo1":-89.0895,"lo2":-89.0444,"dy":0.0017,"dx":0.0017,"nx":28,"ny":28,"refTime":"2023-08-26T21:00:00:Z","depth":0,"parameterNumber":3,"parameterNumberName":"V-component_of_WINDS"},"data":[0,0,0,0,0,0,0,0,0,0,0,0,0,0,0,0,0,0,0,0,0,0,0,0,0,0,0,0,0,0,0,0,0,0,0,0,0,0,0,0,0,0,0,0,0,0,0,0,0,0,0,0,0,0,0,0,0,0,1.8137,1.8138,0,1.8248,1.8249,1.825,1.8142,1.8138,1.8134,1.813,1.824,1.8247,1.8254,0,0,0,0,0,0,0,0,0,0,0,0,0,1.7826,1.7832,1.8137,1.8138,1.814,1.8248,1.8249,1.8251,1.8143,1.8138,1.8133,1.8128,1.8238,1.8246,1.8255,0,0,0,0,0,0,0,0,0,0,0,0,0,1.7951,1.7834,1.8137,1.8099,1.8097,1.8247,1.8249,1.8251,1.8144,1.8138,1.8131,1.8125,1.8235,1.8246,1.8256,1.8448,0,0,1.8287,1.8292,0,0,0,0,0,0,0,0,1.7944,1.7963,1.8103,1.8102,1.81,1.8175,1.818,1.8317,1.8146,1.8126,1.813,1.8122,1.8224,1.8234,1.8269,1.8453,1.8458,1.8288,1.8295,1.8299,1.8302,0,0,0,0,0,0,0,1.7936,1.7957,1.8181,1.8105,1.8103,1.8075,1.8085,1.8205,1.8209,1.8127,1.812,1.8135,1.8221,1.826,1.8271,1.8459,1.8288,1.8297,1.8304,1.8308,1.88,1.8806,0,0,0,0,0,0,1.7932,1.7951,1.8177,1.8184,1.8005,1.8085,1.8097,1.8157,1.8208,1.8209,1.814,1.8129,1.8245,1.8259,1.8275,1.8498,1.8299,1.8309,1.8315,1.8793,1.8801,1.8808,0,0,0,0,0,0,1.7926,1.7953,1.8173,1.8066,1.8091,1.8098,1.8165,1.8163,1.8201,1.8217,1.8217,1.8179,1.824,1.826,1.8404,1.85,1.8313,1.8323,1.8785,1.8795,1.8805,1.895,0,0,0,0,0,0,1.7917,1.7952,1.8027,1.8068,1.8097,1.8303,1.8172,1.8169,1.8219,1.8206,1.8253,1.8255,1.8237,1.8389,1.8415,1.8511,1.8331,1.8776,1.8789,1.8802,1.8936,1.8964,1.8987,0,0,0,0,0,1.7907,1.8064,1.8031,1.8059,1.8191,1.8309,1.8325,1.8302,1.8228,1.8301,1.8311,1.8254,1.8487,1.8405,1.8433,1.8534,1.877,1.8786,1.8801,1.8925,1.8958,1.8986,0,0,0,0,0,0,1.8034,1.8069,1.8033,1.8208,1.8256,1.8291,1.8383,1.8339,1.8409,1.8394,1.8361,1.8372,1.8524,1.8544,1.8453,1.8719,1.8616,1.8637,1.8701,1.8733,1.8757,1.8748,1.834,0,0,0,0,0,1.8082,1.8176,1.8201,1.8354,1.8379,1.8378,1.8428,1.8405,1.8453,1.8473,1.8494,1.8541,1.8624,1.868,1.8758,1.8939,1.8945,1.9022,1.9047,1.9068,1.9086,1.9178,1.921,1.8859,1.8859,1.8859,0,0,1.8183,1.8214,1.8275,1.838,1.8414,1.8509,1.8395,1.8502,1.8571,1.8489,1.8625,1.8642,1.8693,1.8855,1.8927,1.8876,1.9185,1.9088,1.9104,1.9111,1.9197,1.923,1.926,1.8869,1.8867,1.8866,0,0,1.8415,1.845,1.8578,1.8614,1.8668,1.8665,1.8695,1.8736,1.8743,1.888,1.8818,1.8899,1.9045,1.9082,1.912,1.9361,1.9309,1.9388,1.9519,1.9608,1.9636,1.966,1.9741,1.9772,1.9406,1.9407,1.9407,0,1.8533,1.8676,1.8649,1.8759,1.8804,1.8734,1.8861,1.8898,1.8974,1.9006,1.8947,1.9125,1.9155,1.9321,1.938,1.9415,1.9445,1.9381,1.9635,1.9659,1.9681,1.9758,1.9789,1.9415,1.9414,1.9413,1.9413,0,1.8816,1.8916,1.9012,1.9086,1.9143,1.9262,1.925,1.931,1.9282,1.9284,1.9421,1.9454,1.9534,1.9573,1.9548,1.9735,1.9701,1.964,1.9534,1.9724,1.9795,1.9825,1.9428,1.9425,1.9422,1.942,0,0,1.9132,1.9187,1.9223,1.9253,1.9305,1.938,1.9493,1.9572,1.9622,1.9677,1.9767,1.9891,1.9832,1.9875,1.9853,1.9932,2.0114,1.986,1.986,1.9902,2.0317,2.036,2.0395,2.0081,2.0087,2.0091,2.0311,0,1.9361,1.9558,1.9535,1.9722,1.9811,1.9743,1.9841,1.9882,1.9886,1.996,1.9964,2.005,1.997,1.9994,2.007,2.0077,2.0197,2.0061,2.0162,2.0166,2.0147,2.0433,2.048,2.0686,2.0339,2.0344,2.0348,0,1.9656,1.9719,1.9915,1.9948,1.9984,2.0073,2.014,2.0213,2.0256,2.0253,2.03,2.0262,2.0372,2.0266,2.0414,2.0322,2.0362,2.0371,2.0379,2.0384,2.0266,2.0442,2.0752,2.0781,2.0392,2.0389,2.0386,0,1.986,1.9995,2.0127,2.0156,2.02,2.0262,2.0283,2.032,2.0368,2.0427,2.0456,2.0527,2.0565,2.062,2.0601,2.0527,2.0751,2.0645,2.0748,2.0749,2.0796,2.0793,2.1112,2.0829,2.0829,2.0828,2.0828,0,2.0117,2.0238,2.0219,2.03,2.0432,2.0403,2.0534,2.0547,2.0579,2.0659,2.0607,2.0682,2.0655,2.0728,2.0714,2.0836,2.0855,2.0853,2.0847,2.0855,2.0855,2.0878,2.0862,2.0836,2.0835,2.0833,2.0832,0,2.0367,2.036,2.0499,2.0528,2.0538,2.0633,2.0657,2.0731,2.073,2.0832,2.0854,2.0853,2.0936,2.0923,2.1016,2.1006,2.1156,2.1135,2.1142,2.1135,2.1237,2.1226,2.1579,2.1622,2.1316,2.1319,2.1321,0,2.0529,2.062,2.0658,2.0708,2.0733,2.0815,2.0861,2.0836,2.0886,2.094,2.1007,2.1086,2.1147,2.1282,2.1288,2.1357,2.1334,2.1453,2.1344,2.1348,2.133,2.1323,2.133,2.1474,2.1477,2.148,2.1483,0,2.0816,2.0807,2.0877,2.0946,2.1003,2.1056,2.1103,2.1146,2.1124,2.1183,2.1267,2.1315,2.1408,2.1484,2.1549,2.1567,2.152,2.1517,2.1544,2.1551,2.1549,2.1546,2.1196,2.1509,2.1506,2.1504,2.1503,2.1502,2.1024,2.1099,2.1137,2.1215,2.1247,2.1292,2.1361,2.1368,2.1438,2.1512,2.1493,2.1586,2.1622,2.1704,2.1729,2.18,2.1756,2.1796,2.1805,2.1815,2.1824,2.1541,2.1813,2.1812,2.1811,2.1811,2.181,0,2.1304,2.1324,2.1396,2.1463,2.1523,2.1475,2.1523,2.1576,2.166,2.1698,2.1758,2.1852,2.1925,2.1936,2.2005,2.2059,2.2039,2.2078,2.2071,2.2075,2.1863,2.183,2.2092,2.2092,2.2092,2.2092,2.2092,2.2092,2.1456,2.158,2.1574,2.1712,2.173,2.1822,2.1852,2.1891,2.1921,2.2028,2.2089,2.2095,2.2121,2.219,2.2253,2.2254,2.228,2.2326,2.2318,2.2119,2.2091,2.2064,2.2033,2.2333,2.2334,2.2524,2.2526,2.2527]}]]